www.pogodaiklimat.ru

Погода и климат >> Архив погоды >> Великобритания >> Aberdaron


ПОГОДА в Aberdaron

  • Прогноз погоды в Aberdaron
  • Монитор погоды в Aberdaron
  • Климат города

АРХИВ ПОГОДЫ в Aberdaron

Время (UTC), дата Ветер
(напр.,м/с)
 
Видим.   Явления Облачность Т
(С)
Тd
(С)
f
(%)
Тe
(С)
Тes
(С)
Комфортность P
(гПа)
Po
(гПа)
Тmin
(С)
Tmax
(С)
R
(мм)
S
(см)
01 16.03 Ю 8 100 м н/о +7.6 +7.6 100 +2 +2 1027.8 1016.0
02 16.03 Ю 8 100 м н/о +7.5 +7.5 100 +2 +2 1027.1 1015.3
03 16.03 Ю 8 200 м н/о +7.6 +7.6 100 +3 +3 1026.0 1014.2
04 16.03 Ю 9 500 м н/о +7.6 +7.6 100 +2 +2 1024.9 1013.1
05 16.03 Ю 8 200 м н/о +7.6 +7.6 100 +2 +2 1024.3 1012.5
06 16.03 Ю 9 200 м н/о +7.7 +7.7 100 +2 +2 1023.9 1012.2 +6.8 0.2
08 16.03 ЮЗ 8
{13}
40 км н/о +7.6 +7.6 100 +2 +2 1023.3 1011.5
07 16.03 ЮЗ 11
{15}
4800 м н/о +7.6 +7.6 100 +2 +2 1023.5 1011.7
09 16.03 ЮЗ 10
{15}
14 км н/о +7.8 +7.8 100 +2 +2 1022.8 1011.1
10 16.03 ЮЗ 8
{13}
30 км н/о +8.6 +7.6 93 +4 +4 1022.3 1010.6
11 16.03 ЮЗ 10
{14}
19 км н/о +8.6 +7.6 93 +3 +3 1022.0 1010.3
12 16.03 ЮЗ 8
{15}
30 км н/о +9.8 +7.9 88 +6 +6 1021.1 1009.5 0.6
14 16.03 ЮЗ 13
{17}
30 км н/о +8.9 +7.9 93 +3 +3 1020.1 1008.4
13 16.03 ЮЗ 10 30 км н/о +10.0 +8.9 93 +5 +5 1020.6 1008.9
15 16.03 ЮЗ 12-17
{19}
28 км н/о +8.9 +8.0 94 +3 +3 1019.8 1008.2
16 16.03 ЮЗ 11
{17}
7000 м н/о +8.5 +8.4 99 +3 +3 1019.6 1007.9
17 16.03 СЗ 8
{13}
21 км н/о +7.8 +7.8 100 +3 +3 1020.0 1008.3
18 16.03 СЗ 5 30 км н/о +7.7 +7.0 95 +4 +4 1020.3 1008.6 +10.1 1
20 16.03 СЗ 9 40 км н/о +7.0 +3.7 79 +2 +2 1021.2 1009.4
19 16.03 СЗ 8 40 км н/о +7.7 +6.3 91 +3 +3 1020.8 1009.1
21 16.03 СЗ 8 35 км н/о +6.5 +2.0 73 +1 +1 1021.8 1010.0
22 16.03 СЗ 8 30 км н/о +6.3 +2.8 78 +1 +1 1022.0 1010.2
23 16.03 СЗ 10
{13}
35 км н/о +6.0 +0.5 68 0 0 1022.1 1010.3
00 17.03 З 9
{14}
40 км н/о +5.7 +0.9 71 0 0 1021.9 1010.1
02 17.03 З 11
{15}
35 км н/о +5.6 +1.4 74 -1 -1 1021.2 1009.4
01 17.03 З 11
{14}
35 км н/о +5.7 +1.3 73 -1 -1 1021.8 1010.0
03 17.03 З 11
{15}
30 км н/о +5.7 +2.4 79 -1 -1 1020.5 1008.7
04 17.03 З 11
{15}
28 км н/о +5.8 +2.9 82 -1 -1 1020.3 1008.5
05 17.03 З 12
{15}
30 км н/о +5.8 +3.1 83 -1 -1 1020.0 1008.2
06 17.03 З 12 25 км н/о +6.2 +4.0 86 -0 -0 1019.6 1007.8 +5.4
07 17.03 З 11
{14}
26 км н/о +6.3 +4.0 85 0 0 1019.5 1007.7
08 17.03 З 11
{14}
25 км н/о +6.5 +4.5 87 0 0 1019.5 1007.7
09 17.03 З 12
{16}
30 км н/о +7.2 +4.8 85 +1 +1 1018.9 1007.2
10 17.03 З 14
{17}
24 км н/о +7.2 +5.0 86 +1 +1 1018.3 1006.6
11 17.03 ЮЗ 15
{20}
26 км н/о +7.6 +5.2 85 +1 +1 1017.6 1005.9
12 17.03 ЮЗ 13
{18}
20 км н/о +8.1 +5.7 85 +2 +2 1017.0 1005.4
13 17.03 ЮЗ 14
{20}
20 км н/о +8.2 +6.0 86 +2 +2 1016.5 1004.8
14 17.03 ЮЗ 14
{22}
21 км н/о +8.2 +6.3 88 +2 +2 1014.8 1003.2
15 17.03 ЮЗ 18 13 км н/о +8.0 +7.1 94 +1 +1 1013.1 1001.5
16 17.03 ЮЗ 19-26
{26}
13 км н/о +8.3 +7.4 94 +1 +1 1011.5 1000.0
17 17.03 ЮЗ 15-20
{25}
12 км н/о +8.6 +7.9 95 +2 +2 1010.5 998.9
18 17.03 ЮЗ 17 11 км н/о +8.8 +8.3 97 +2 +2 1009.0 997.5 +8.8 1
19 17.03 ЮЗ 17
{22}
11 км н/о +9.0 +8.6 97 +3 +3 1008.5 997.0
20 17.03 ЮЗ 16
{22}
9000 м н/о +9.1 +8.8 98 +3 +3 1008.4 996.8
21 17.03 ЮЗ 17
{22}
9000 м н/о +9.4 +9.1 98 +3 +3 1008.0 996.5
22 17.03 ЮЗ 14
{20}
10 км н/о +9.4 +9.3 99 +4 +4 1008.9 997.4
23 17.03 ЮЗ 14
{19}
8000 м н/о +9.5 +9.4 99 +4 +4 1008.3 996.8
00 18.03 З 12
{16}
9000 м н/о +9.5 +9.2 98 +4 +4 1008.5 997.0 0.2
01 18.03 З 13
{16}
20 км н/о +10.0 +9.1 94 +5 +5 1008.5 997.0
02 18.03 З 12
{15}
16 км н/о +9.7 +9.0 95 +5 +5 1008.2 996.7
03 18.03 З 12
{15}
21 км н/о +9.8 +9.1 95 +5 +5 1008.2 996.7
04 18.03 З 10
{15}
20 км н/о +9.7 +9.0 95 +5 +5 1008.9 997.4
05 18.03 З 9
{13}
18 км н/о +9.5 +9.2 98 +5 +5 1009.7 998.2
06 18.03 З 9 14 км н/о +9.5 +9.3 99 +5 +5 1009.9 998.4 +8.8 0.2
07 18.03 З 9 23 км н/о +9.5 +9.5 100 +5 +5 1010.6 999.1
08 18.03 З 9 18 км н/о +9.4 +9.2 99 +5 +5 1010.8 999.3
09 18.03 З 9 17 км н/о +9.3 +9.1 99 +5 +5 1010.8 999.3
11 18.03 З 11
{13}
12 км н/о +9.6 +9.4 99 +5 +5 1011.1 999.6
10 18.03 ЮЗ 10 14 км н/о +9.7 +9.4 98 +5 +5 1010.7 999.2
12 18.03 ЮЗ 11
{15}
12 км н/о +9.7 +9.5 99 +5 +5 1011.4 999.8
13 18.03 ЮЗ 10
{13}
11 км н/о +10.1 +9.8 98 +5 +5 1011.3 999.7
14 18.03 ЮЗ 11
{15}
21 км н/о +10.9 +9.9 94 +6 +6 1011.0 999.5
15 18.03 ЮЗ 11
{15}
13 км н/о +10.0 +9.5 97 +5 +5 1010.5 999.0
17 18.03 ЮЗ 11
{16}
17 км н/о +10.0 +9.7 98 +5 +5 1010.7 999.2
16 18.03 ЮЗ 12
{16}
20 км н/о +10.2 +9.6 96 +5 +5 1010.5 999.0
18 18.03 ЮЗ 9 13 км н/о +9.8 +9.5 98 +5 +5 1011.1 999.6 +11.2
19 18.03 ЮЗ 11
{14}
14 км н/о +10.0 +9.7 98 +5 +5 1011.1 999.6
20 18.03 ЮЗ 11
{15}
9000 м н/о +9.8 +9.6 99 +5 +5 1010.7 999.2
21 18.03 ЮЗ 12
{18}
9000 м н/о +9.8 +9.7 99 +5 +5 1010.4 998.9
23 18.03 ЮЗ 11
{17}
7000 м н/о +9.4 +9.4 100 +4 +4 1009.7 998.2
22 18.03 ЮЗ 13
{19}
8000 м н/о +9.9 +9.8 99 +5 +5 1009.8 998.3
00 19.03 ЮЗ 12
{16}
6000 м н/о +9.2 +9.2 100 +4 +4 1009.6 998.1
01 19.03 ЮЗ 13
{20}
8000 м н/о +9.4 +9.4 100 +4 +4 1008.6 997.1
02 19.03 ЮЗ 14-21
{21}
6000 м н/о +9.3 +9.2 99 +3 +3 1007.9 996.4
03 19.03 ЮЗ 13 7000 м н/о +9.2 +9.0 99 +4 +4 1007.9 996.4
05 19.03 ЮЗ 14 8000 м н/о +9.2 +9.0 99 +3 +3 1007.1 995.6
04 19.03 ЮЗ 13
{20}
8000 м н/о +9.2 +8.9 98 +4 +4 1007.6 996.1
06 19.03 ЮЗ 17 7000 м н/о +9.2 +8.9 98 +3 +3 1006.3 994.8 +9.1 0.2
07 19.03 ЮЗ 14-20
{21}
12 км н/о +9.4 +9.1 98 +4 +4 1006.3 994.8
08 19.03 ЮЗ 16-22
{23}
11 км н/о +9.5 +9.4 99 +3 +3 1006.0 994.6
09 19.03 ЮЗ 18
{24}
11 км н/о +10.1 +9.4 95 +4 +4 1005.7 994.2
10 19.03 ЮЗ 19-24
{27}
10 км н/о +9.9 +9.2 95 +4 +4 1005.4 994.0
11 19.03 ЮЗ 19-27
{27}
8000 м н/о +9.9 +9.3 96 +4 +4 1005.4 994.0
12 19.03 ЮЗ 16-22
{28}
8000 м н/о +9.9 +9.4 97 +4 +4 1005.3 993.8
13 19.03 ЮЗ 17-22
{25}
7000 м н/о +10.0 +9.6 97 +4 +4 1005.2 993.8
14 19.03 ЮЗ 15
{23}
7000 м н/о +10.1 +9.8 98 +5 +5 1005.2 993.7
15 19.03 ЮЗ 15
{20}
3800 м н/о +9.7 +9.7 100 +4 +4 1004.9 993.4
16 19.03 ЮЗ 15
{22}
600 м н/о +9.5 +9.5 100 +4 +4 1005.0 993.6
17 19.03 ЮЗ 13-20
{20}
6000 м н/о +9.6 +9.6 100 +4 +4 1005.0 993.5
18 19.03 ЮЗ 12
{20}
900 м н/о +9.4 +9.4 100 +4 +4 1005.4 994.0 +10.3 1
19 19.03 ЮЗ 10
{16}
1800 м н/о +9.3 +9.3 100 +4 +4 1005.0 993.5
20 19.03 ЮЗ 10
{17}
4300 м н/о +9.3 +9.3 100 +4 +4 1005.2 993.7
21 19.03 ЮЗ 10
{16}
2800 м н/о +9.1 +9.1 100 +4 +4 1005.1 993.6
22 19.03 ЮЗ 11
{16}
7000 м н/о +9.2 +9.2 100 +4 +4 1004.6 993.2
23 19.03 ЮЗ 12
{17}
6000 м н/о +9.0 +9.0 100 +3 +3 1004.9 993.4
00 20.03 ЮЗ 13
{17}
9000 м н/о +9.3 +9.3 100 +4 +4 1004.1 992.6
01 20.03 ЮЗ 14
{20}
100 м н/о +9.2 +9.2 100 +3 +3 1003.3 991.9
02 20.03 ЮЗ 15
{21}
6000 м н/о +9.2 +9.2 100 +3 +3 1002.3 990.9
03 20.03 ЮЗ 14-20
{20}
9000 м н/о +9.1 +9.1 100 +3 +3 1001.7 990.3
04 20.03 ЮЗ 13
{22}
10 км н/о +9.1 +9.1 100 +3 +3 1001.4 990.0
05 20.03 ЮЗ 11-16
{19}
9000 м н/о +9.2 +9.2 100 +4 +4 1000.9 989.5
06 20.03 ЮЗ 10 3500 м н/о +8.9 +8.9 100 +4 +4 1000.7 989.3 +8.9 2
08 20.03 З 8 16 км н/о +7.6 +7.6 100 +3 +3 1000.1 988.6
07 20.03 З 8 4000 м н/о +8.3 +8.3 100 +3 +3 1000.4 988.9
09 20.03 З 9 12 км н/о +7.9 +7.8 99 +3 +3 1000.4 988.9
10 20.03 З 9
{13}
25 км н/о +7.8 +7.6 99 +2 +2 1000.8 989.3
11 20.03 З 9
{13}
28 км н/о +7.7 +6.5 92 +2 +2 1001.2 989.7
12 20.03 З 8
{13}
35 км н/о +9.1 +6.3 83 +5 +5 1001.5 990.1 3
14 20.03 З 9 35 км н/о +9.5 +5.6 77 +5 +5 1001.6 990.2
13 20.03 З 7 30 км н/о +8.3 +4.8 79 +4 +4 1001.8 990.3
15 20.03 ЮЗ 10 30 км н/о +9.2 +5.2 76 +5 +5 1001.6 990.2
16 20.03 ЮЗ 12
{16}
30 км н/о +8.9 +6.1 83 +4 +4 1001.6 990.1
17 20.03 ЮЗ 12
{17}
35 км н/о +7.3 +4.3 81 +1 +1 1001.9 990.4
18 20.03 ЮЗ 10
{19}
35 км н/о +7.0 +4.7 85 +1 +1 1002.2 990.7 +9.7 3
20 20.03 ЮЗ 9
{15}
27 км н/о +6.9 +5.0 88 +1 +1 1002.5 991.0
19 20.03 ЮЗ 10
{15}
40 км н/о +6.9 +4.2 83 +1 +1 1002.2 990.7
21 20.03 З 12
{26}
30 км н/о +5.4 +3.9 90 -1 -1 1002.9 991.3
22 20.03 З 16
{20}
30 км н/о +5.5 +2.8 83 -2 -2 1002.8 991.2
23 20.03 З 17
{21}
35 км н/о +4.9 +1.3 77 -3 -3 1003.6 991.9
00 21.03 З 14
{20}
30 км н/о +4.6 +1.2 79 -3 -3 1004.4 992.7
02 21.03 З 13
{20}
35 км н/о +4.0 0.0 75 -3 -3 1005.5 993.8
01 21.03 З 15
{20}
35 км н/о +3.9 +0.1 76 -4 -4 1005.0 993.3
03 21.03 З 15
{20}
35 км н/о +4.0 +0.6 78 -4 -4 1005.8 994.1
04 21.03 З 14
{19}
28 км н/о +3.7 +0.3 78 -4 -4 1005.9 994.2
05 21.03 З 15
{19}
30 км н/о +3.8 +0.1 77 -4 -4 1005.7 994.0
06 21.03 З 13 28 км н/о +3.6 -0.1 77 -4 -4 1006.1 994.4 +3.6
07 21.03 З 14
{18}
30 км н/о +4.0 -0.1 75 -4 -4 1006.3 994.6
08 21.03 З 14
{18}
35 км н/о +4.2 +0.6 77 -3 -3 1006.8 995.1
09 21.03 З 13
{17}
35 км н/о +4.9 -0.2 70 -2 -2 1006.9 995.2
10 21.03 З 13
{16}
40 км н/о +5.6 -0.1 67 -1 -1 1007.2 995.5
11 21.03 З 13
{16}
40 км н/о +6.1 +0.8 69 -0 -0 1007.5 995.8
12 21.03 ЮЗ 12
{15}
35 км н/о +6.8 +1.2 67 +1 +1 1007.1 995.5
13 21.03 ЮЗ 13
{17}
40 км н/о +6.5 +1.2 69 0 0 1006.7 995.1
14 21.03 0 35 км н/о +5.2 +2.3 82 1006.0 994.4
15 21.03 0 35 км н/о +6.5 +2.7 77 1005.7 994.1
16 21.03 0 35 км н/о +5.3 +3.3 87 1005.4 993.8
17 21.03 0 45 км н/о +4.9 +3.3 89 1005.2 993.6
18 21.03 0 35 км н/о +5.5 +3.4 86 1004.5 992.8 +7.1
19 21.03 0 45 км н/о +5.3 +3.3 87 1004.2 992.6
20 21.03 0 6000 м н/о +5.0 +3.9 93 1003.8 992.2
21 21.03 0 14 км н/о +4.6 +3.3 91 1002.9 991.3
22 21.03 0 12 км н/о +4.2 +3.3 94 1002.0 990.3
23 21.03 0 8000 м н/о +3.6 +2.9 95 1001.3 989.6
00 22.03 штиль 0 10 км н/о +4.4 +4.0 97 +3 +3 1000.2 988.6
01 22.03 штиль 0 30 км н/о +4.3 +3.7 96 +3 +3 999.7 988.1
02 22.03 штиль 0 29 км н/о +5.4 +4.8 96 +4 +4 998.8 987.3
03 22.03 штиль 0 35 км н/о +6.1 +4.8 91 +5 +5 998.5 987.0
04 22.03 штиль 0 35 км н/о +5.3 +4.4 94 +4 +4 998.6 987.0
05 22.03 штиль 0 35 км н/о +5.5 +4.5 93 +4 +4 998.5 987.0
06 22.03 штиль 0 45 км н/о +6.0 +4.7 91 +5 +5 998.7 987.2 +3.3
07 22.03 штиль 0 50 км н/о +5.5 +4.5 93 +4 +4 999.4 987.8
08 22.03 штиль 0 50 км н/о +5.9 +3.6 85 +5 +5 1000.1 988.6
09 22.03 0 50 км н/о +6.4 +3.8 83 1000.9 989.4
11 22.03 0 50 км н/о +6.4 +4.2 86 1002.6 991.1
10 22.03 0 50 км н/о +7.1 +4.5 84 1001.6 990.1
12 22.03 0 50 км н/о +7.7 +5.6 87 1003.2 991.6
13 22.03 0 50 км н/о +7.1 +4.4 83 1003.8 992.2
14 22.03 0 21 км н/о +6.6 +4.6 87 1004.3 992.7
15 22.03 0 50 км н/о +7.7 +5.7 87 1004.7 993.2
17 22.03 0 50 км н/о +6.3 +4.0 85 1005.9 994.3
16 22.03 0 50 км н/о +7.5 +5.1 85 1005.1 993.5
18 22.03 0 50 км н/о +6.0 +2.9 80 1006.8 995.2 +7.8
19 22.03 0 50 км н/о +5.8 +3.1 83 1007.8 996.2
20 22.03 0 50 км н/о +5.5 +2.9 83 1008.7 997.0
21 22.03 0 50 км н/о +5.6 +2.8 82 1009.6 997.9
23 22.03 0 50 км н/о +5.2 +2.2 81 1011.1 999.3
22 22.03 0 50 км н/о +5.2 +2.4 82 1010.3 998.6

 

Местоположение метеостанции Aberdaron (Великобритания): широта 52.78 долгота -4.73 высота над уровнем моря 94 м.

В архиве по умолчанию представлена погода в Aberdaron за последнюю неделю. Архивные данные за месяц целиком и за предыдущие месяцы, начиная с января 2011 года, Вы можете получить, выбрав интересующий диапазон дат из раскрывающегося списка и нажав кнопку "Ввод!".

Внимание! Время в таблицах - всемирное. Для получения местного времени необходимо прибавить поправку, которая в Aberdaron равна 0 ч.

Смотрите также архив погоды в соседних городах и на ближайших метеорологических станциях:

Погода в Valley (Великобритания) (54 км)
Погода в Mona (Великобритания) (58 км)
Погода в Capel Curig (Великобритания) (64 км)
Погода в Trawsgoed (Великобритания) (71 км)
Погода в Aberporth (Великобритания) (73 км)
Погода в Bala (Великобритания) (79 км)
Погода в Lake Vyrnwy (Великобритания) (85 км)
Погода в Rhyl (Великобритания) (98 км)
Погода в Sennybridge (Великобритания) (109 км)
Погода в Pembrey Sands (Великобритания) (120 км)

Пояснения к столбцам:

Ветер - указаны скорость ветра в м/с - средняя за 10 мин, порывы в срок и между сроками (в фигурных скобках) и направление, откуда дует ветер: С - северный, СВ - северо-восточный, В - восточный, ЮВ - юго-восточный, Ю - южный, ЮЗ - юго-западный, З - западный, СЗ - северо-западный.
Видимость - горизонтальная дальность видимости в метрах или километрах. При видимости от 1 до 10 км при отсутствии осадков обычно наблюдается дымка, при ухудшении видимости до 1 км и менее - туман. В сухую погоду видимость может ухудшаться дымом, пылью или мглою.
Явления - указаны атмосферные явления, наблюдавшиеся в срок или в последний час перед сроком; фигурными скобками обозначены явления, наблюдавшиеся между сроками (за 1-3 часа до срока); квадратными скобками обозначены град или гололедные отложения с указанием их диаметра в мм.
Облачность - указаны через наклонную черту общая и нижняя облачность в баллах и высота нижней границы облаков в метрах; квадратными скобками обозначены формы облаков: Ci - перистые, Cs - перисто-слоистые, Cc - перисто-кучевые, Ac - высококучевые, As - высокослоистые, Sc - слоисто-кучевые, Ns - слоисто-дождевые, Cu - кучевые, Cb - кучево-дождевые. Подробнее классификацию облаков см. в Атласе облаков (PDF).
T - Температура воздуха - температура, измеренная на высоте 2 м над землей.
Td - Температура точки росы - температура, при понижении до которой содержащийся в воздухе водяной пар достигнет насыщения.
f - Относительная влажность воздуха - влажноcть воздуха, измеренная на высоте 2 м над землей.
Te - Эффективная температура - температура, которую ощущает одетый по сезону человек в тени. Характеристика душности погоды. При расчете учитывается влияние влажности воздуха и скорости ветра на теплоощущения человека.
Tes - Эффективная температура на солнце - температура, которую ощущает человек, с поправкой на солнечный нагрев. Характеристика знойности погоды. Зависит от высоты солнца над горизонтом, облачности и скорости ветра. Ночью, в пасмурную погоду, а также при ветре 12 м/с и более поправка равна нулю.
P - Атмосферное давление - приведенное к уровню моря атмосферное давление.
Po - Атмосферное давление - измеренное на уровне метеостанции атмосферное давление.
Tmin - Минимальная температура - минимум температуры воздуха на высоте 2 м над землей.
Tmax - Максимальная температура - максимум температуры воздуха на высоте 2 м над землей.
R - Количество осадков - Количество выпавших осадков, мм. При наведении курсора мыши на число - период времени, за который выпало указанное количество осадков.
S - Снежный покров - Высота снежного покрова, см. При наведении курсора мыши на число - состояние снежного покрова и степень покрытия местности в баллах.